Location: Unspecified
(52.4292°N, 19.3359°E)
Time: 00:27:57
(UTC+02:00)

SR - Pass Details

Date: 31 May 2024
Orbit: 580 x 858 km, 66.7° (Epoch: 12 June)

Event Time Altitude Azimuth Distance (km) Brightness Sun altitude
Rises 14:45:22 0° 154° (SSE) 3,191 ? 51.3°
Reaches altitude 10° 14:50:07 10° 115° (ESE) 2,186 ? 50.8°
Maximum altitude 14:50:55 10° 105° (ESE) 2,148 ? 50.7°
Drops below altitude 10° 14:51:42 10° 96° (E) 2,159 ? 50.6°
Sets 14:56:12 0° 56° (NE) 2,997 ? 50.0°
